Wind_Speed
19 18 18 19 19 19 18 16 16 16 15 13 13 13 12 12 12 12 12 11 12 12 12 13 12 12 12 13 13 13 13 13 13 13 13 13 13 13 12 12 13 13 13 14 14 14 14 14 14
19 19 19 20 20 19 18 17 16 16 15 15 14 14 14 13 13 14 13 13 13 14 14 15 15 15 15 14 15 15 15 15 15 15 15 15 14 14 14 14 15 15 15 15 16 16 16 16 16
19 20 20 20 20 19 18 17 17 16 16 16 16 16 15 14 14 15 15 15 15 15 16 17 17 17 17 17 17 17 17 17 17 16 16 16 16 16 16 16 16 16 16 17 17 17 18 18 18
19 20 21 21 20 19 19 18 18 17 17 17 17 17 17 16 16 16 17 17 17 17 17 18 19 19 19 19 19 19 19 19 19 19 18 18 18 18 18 18 18 18 18 18 19 19 20 20 20
20 21 22 21 20 19 19 19 19 18 18 18 18 18 18 17 18 18 19 18 18 18 19 20 20 21 21 21 21 20 20 20 20 20 20 20 20 19 19 19 20 20 20 20 21 21 22 22 22
20 22 22 21 20 20 20 20 20 20 19 20 20 20 20 19 20 20 20 20 20 20 21 21 22 22 22 22 22 22 22 22 21 21 21 21 20 21 21 21 21 21 21 22 22 23 23 24 24
21 22 22 21 21 21 21 20 20 21 21 21 20 21 20 20 21 21 21 21 21 22 22 22 23 23 23 23 23 23 23 23 23 22 22 21 21 22 22 22 23 23 23 23 24 24 24 25 25
21 23 23 22 22 21 21 21 21 20 21 21 22 22 21 22 22 22 22 23 23 23 23 23 23 23 23 23 23 24 24 24 24 23 23 23 23 23 24 24 25 25 25 25 26 26 26 26 27
21 23 23 22 22 20 20 21 22 20 20 21 22 22 23 22 23 23 24 25 25 25 24 24 24 23 23 23 24 24 24 24 25 25 25 25 25 25 26 26 26 26 26 26 26 27 27 28 29
20 21 21 22 21 20 20 21 21 21 20 21 21 22 24 24 24 24 24 25 25 24 25 24 24 23 24 24 24 24 25 26 26 27 27 27 26 26 27 28 28 28 28 28 28 29 30 30 31
18 19 20 20 20 20 20 20 20 21 21 21 22 22 23 24 24 24 25 25 24 24 24 24 24 24 24 25 25 26 26 26 27 27 27 28 29 28 28 29 30 30 30 30 31 31 32 32 33
17 19 19 20 20 20 19 19 20 20 21 21 22 23 23 23 24 25 25 25 25 25 25 25 24 24 24 24 25 26 27 27 28 28 28 29 30 30 30 30 31 31 32 32 33 33 34 34 34
16 17 19 19 20 19 18 18 18 19 19 19 21 22 23 23 23 24 24 25 25 26 25 25 25 25 25 25 26 26 26 27 28 29 29 30 31 31 31 31 32 33 33 34 34 35 35 36 36
14 16 17 18 18 18 17 17 18 18 18 19 20 21 21 22 23 23 23 23 25 25 25 25 24 25 25 26 26 26 27 27 28 29 30 31 31 31 32 32 33 34 34 34 35 36 36 37 37
12 14 16 17 17 17 16 17 17 18 19 19 19 19 19 19 20 22 22 22 23 23 23 24 24 25 26 26 26 28 28 29 30 30 31 31 31 31 32 33 34 34 35 35 35 36 37 37 37
12 14 15 16 17 18 17 17 17 18 18 18 18 18 17 18 19 20 21 21 21 22 23 24 24 24 24 25 26 27 28 29 31 31 31 32 32 32 33 34 35 36 36 36 35 37 38 38 38
12 14 15 16 17 17 18 18 17 17 16 17 17 17 18 18 18 17 18 20 20 20 22 23 23 24 25 25 26 28 29 30 31 31 32 32 33 33 34 34 35 35 36 36 36 37 38 38 38
11 12 14 15 16 17 18 18 17 17 17 16 17 17 17 17 18 18 18 18 19 20 21 22 23 24 24 25 26 27 28 29 30 30 30 31 33 33 34 34 34 35 36 36 37 37 37 38 38
9 10 12 14 15 17 18 18 17 16 16 17 17 17 16 16 16 18 18 18 18 19 20 21 23 24 25 26 26 27 28 30 30 30 30 31 32 33 33 34 35 35 37 37 37 37 37 38 39
8 9 11 12 14 15 17 18 17 17 17 17 17 17 17 16 16 17 18 19 19 18 20 22 23 24 26 26 27 29 30 29 30 31 31 32 33 34 33 34 35 36 37 37 38 38 38 38 40
9 9 9 10 11 13 13 14 14 15 15 16 16 17 18 18 18 17 17 18 19 20 21 22 23 25 26 27 28 29 30 30 31 32 32 32 32 33 34 34 35 36 37 37 38 38 39 40 40
9 9 8 9 10 10 10 11 11 11 12 14 15 17 18 19 20 19 18 18 19 19 20 21 23 25 26 27 27 28 29 30 32 32 32 32 32 33 33 33 34 34 35 36 37 38 38 40 41
9 9 8 8 9 10 11 11 10 11 12 13 14 16 18 19 20 20 20 19 20 20 21 22 23 24 25 26 27 28 29 30 31 31 32 32 32 32 32 32 32 33 34 35 36 37 38 40 42
8 8 9 9 9 10 11 12 11 11 12 13 13 14 16 18 19 19 20 20 21 21 22 23 24 24 25 26 27 29 30 30 30 31 32 32 32 31 31 32 32 33 34 35 36 37 39 41 42
8 8 9 10 10 11 12 13 12 12 13 14 14 15 15 16 18 20 21 22 23 23 24 24 24 24 25 26 27 28 29 29 29 29 31 32 32 32 32 33 33 34 35 36 37 39 40 42 42
8 9 10 12 12 12 13 14 14 14 14 15 15 16 16 17 18 19 21 22 23 24 24 24 25 25 26 26 27 28 28 28 28 29 30 30 31 31 32 33 33 34 36 37 38 40 41 41 41
10 11 12 13 15 15 15 15 15 14 15 16 16 17 17 17 18 19 20 21 22 23 24 24 25 26 26 26 27 27 27 28 28 28 29 30 30 31 32 33 34 35 36 38 39 40 40 40 39
12 13 13 15 16 17 16 16 16 15 16 16 16 17 17 17 17 18 19 20 21 22 24 24 25 25 25 26 26 27 28 28 28 28 29 30 30 31 32 33 35 37 37 38 39 39 39 38 38
13 14 15 16 17 18 19 17 17 17 17 17 17 17 17 17 17 18 19 20 21 22 23 23 23 24 25 26 26 27 28 28 29 29 30 30 30 32 33 34 35 36 37 38 38 38 37 37 38
16 16 16 17 18 19 20 19 17 17 17 18 18 18 18 18 18 19 20 20 20 20 21 23 24 24 25 25 26 27 28 28 28 29 30 30 31 31 33 34 34 35 36 36 37 37 37 38 38
Wind_Direction
218 220 222 222 224 227 230 231 235 237 237 238 237 240 242 246 251 254 256 255 253 252 251 250 250 250 251 254 255 258 260 261 262 265 266 268 269 271 271 270 272 273 273 272 271 273 273 273 273
220 222 224 224 226 229 231 233 239 243 242 241 241 242 243 248 252 253 255 256 255 253 252 252 253 253 254 256 256 257 260 262 264 265 266 267 268 269 269 270 271 273 274 274 274 274 273 273 275
223 224 226 228 229 231 233 235 239 243 243 242 244 245 247 251 255 257 257 256 256 255 254 255 255 255 256 257 257 258 259 262 263 264 266 268 268 268 269 269 271 272 273 274 274 274 274 274 275
225 227 228 230 233 233 235 237 241 244 246 247 248 249 251 253 257 259 259 259 259 258 257 256 256 256 257 258 259 259 260 261 262 264 265 266 266 268 269 269 269 272 274 275 275 275 275 275 276
230 230 231 233 236 235 237 239 242 246 248 250 252 254 254 256 260 261 261 262 262 261 260 260 259 258 258 258 259 260 260 261 262 263 265 265 266 267 269 270 271 273 275 275 276 276 276 276 277
233 232 233 235 238 236 240 242 246 248 249 252 253 254 255 258 261 261 260 262 264 263 262 262 262 261 260 259 259 260 260 260 260 262 263 264 266 267 268 270 272 274 275 275 276 277 276 276 277
235 234 234 236 240 238 241 245 247 249 250 252 253 255 256 258 259 260 260 261 263 264 262 261 262 261 260 260 260 260 261 260 260 261 262 264 266 268 268 270 271 273 274 275 275 276 276 276 277
236 237 236 238 241 240 241 244 246 247 249 250 251 254 256 258 259 260 260 262 264 265 264 261 261 261 259 259 260 261 261 261 260 261 264 265 266 267 268 269 271 273 274 275 275 275 276 277 278
236 237 236 238 242 242 243 245 245 246 249 251 253 256 258 260 262 263 263 264 265 265 263 260 259 259 260 261 261 262 264 262 260 261 263 265 266 267 268 269 272 273 274 274 276 275 276 278 279
238 239 240 241 242 244 245 246 246 247 251 252 257 259 262 262 264 266 266 266 267 265 261 258 257 259 261 262 261 263 265 264 262 263 265 266 266 268 269 270 272 272 273 274 276 276 277 278 279
238 242 243 243 244 244 246 247 249 250 253 254 258 261 264 265 266 267 267 267 266 264 261 258 259 260 263 264 263 265 266 265 264 265 267 267 267 269 270 271 272 273 274 275 276 278 279 279 281
242 243 243 243 243 245 248 250 252 253 255 258 260 263 265 267 267 267 267 267 265 263 262 258 259 258 260 263 265 266 267 266 266 266 267 268 269 270 271 271 272 273 274 276 277 279 280 280 281
244 244 243 242 243 246 249 251 252 254 257 262 262 263 266 268 265 265 264 265 264 263 261 258 257 257 260 263 264 267 267 268 266 265 267 269 270 271 271 272 273 274 275 276 278 279 280 281 282
244 243 240 239 242 245 249 253 255 256 259 262 265 267 268 269 266 265 265 265 264 263 259 256 256 257 259 264 265 266 268 269 269 269 270 271 271 272 272 272 273 274 275 277 278 279 280 281 282
247 241 238 239 243 246 247 251 255 259 261 263 265 267 268 268 268 268 268 266 264 261 258 256 257 257 259 263 264 267 270 271 273 273 273 273 273 272 272 272 273 274 275 276 278 280 280 280 282
253 246 240 241 244 247 247 250 258 262 262 262 263 264 265 269 271 272 269 267 265 260 259 260 259 258 262 264 265 268 271 273 275 276 276 274 274 273 273 273 274 275 275 276 278 280 281 281 281
252 251 246 244 244 246 251 257 262 261 261 261 261 263 265 269 269 273 272 269 267 263 263 264 261 263 266 268 268 270 273 275 277 277 277 276 275 275 274 274 275 275 276 277 278 280 282 282 282
253 254 251 249 248 249 254 258 264 264 261 265 266 266 266 268 268 272 275 275 271 270 270 265 262 268 271 271 270 273 275 277 278 279 279 278 278 277 276 276 277 277 277 278 279 280 282 282 282
262 263 259 256 255 257 256 257 263 267 265 267 267 266 265 267 269 272 275 277 273 271 271 268 268 271 273 273 273 275 277 278 279 281 282 281 279 278 277 276 277 278 278 278 279 280 281 282 283
261 269 268 264 261 260 258 260 264 266 265 266 268 266 266 266 269 272 273 276 274 274 274 274 274 275 275 276 276 277 280 280 280 282 282 282 280 278 277 277 277 278 278 278 279 281 281 282 283
262 271 272 270 270 268 269 265 266 269 265 266 268 270 270 269 270 272 274 275 279 280 280 278 276 276 277 277 279 280 281 282 283 283 282 283 282 279 278 279 278 278 277 278 279 282 283 283 284
266 273 277 275 276 273 273 273 270 273 272 273 274 274 274 274 274 275 277 280 281 283 284 282 280 279 279 280 280 281 283 284 284 284 285 285 285 282 280 280 280 280 279 279 281 282 285 286 287
275 274 273 274 275 274 273 275 276 278 277 279 281 280 278 276 277 277 278 281 283 287 289 287 284 283 283 283 284 283 284 285 285 285 284 285 285 284 282 282 283 283 283 283 284 284 287 289 289
277 272 267 274 279 270 274 278 280 282 285 288 292 292 288 286 282 280 280 282 284 285 289 290 288 286 285 285 286 287 286 286 286 286 285 285 284 283 283 284 286 286 286 286 287 287 288 290 291
271 272 272 277 281 277 275 279 285 289 291 294 295 297 296 294 290 285 283 284 286 286 287 289 288 286 285 286 287 288 289 288 288 289 288 286 285 283 284 286 288 288 288 288 289 290 291 292 293
271 274 275 279 284 286 283 283 289 291 291 293 294 295 294 293 292 290 288 287 287 288 287 288 287 285 284 285 288 288 289 289 291 292 291 288 287 285 285 287 288 290 290 290 291 292 293 293 295
268 272 275 281 288 289 288 286 286 290 292 293 293 294 294 295 295 294 292 291 291 290 290 291 291 290 288 287 288 289 289 290 292 294 295 292 290 289 288 288 289 290 291 291 292 292 293 292 294
272 275 277 280 289 291 290 289 288 290 293 294 293 294 294 294 296 296 295 294 294 294 294 293 294 292 290 290 291 291 291 291 292 295 297 294 291 290 290 290 291 291 292 293 293 293 293 292 293
276 283 283 282 285 292 295 295 296 295 294 295 293 294 294 294 296 298 298 296 295 296 296 296 295 295 294 294 293 293 293 294 293 294 295 294 292 292 292 291 293 294 295 295 294 294 293 293 294
279 282 283 285 287 291 293 296 298 296 295 295 296 295 293 292 294 296 298 297 297 296 297 296 295 294 295 295 293 292 292 294 294 294 293 294 295 295 295 296 297 297 297 297 296 294 293 294 294
Height
5820 5823 5824 5827 5828 5829 5830 5831 5831 5832 5833 5834 5835 5835 5836 5837 5838 5840 5838 5837 5837 5837 5837 5837 5837 5837 5837 5838 5838 5838 5838 5838 5838 5838 5838 5837 5837 5837 5837 5836 5836 5835 5835 5834 5834 5834 5833 5833 5832
5817 5820 5822 5824 5824 5826 5828 5828 5829 5829 5830 5831 5832 5833 5833 5834 5835 5835 5834 5834 5834 5834 5835 5835 5835 5835 5835 5835 5835 5835 5835 5835 5835 5835 5835 5835 5835 5835 5834 5834 5833 5833 5832 5832 5831 5831 5830 5830 5829
5814 5817 5819 5820 5821 5823 5825 5825 5826 5826 5827 5828 5829 5829 5830 5831 5831 5831 5831 5831 5831 5831 5831 5831 5832 5832 5832 5832 5832 5832 5832 5832 5832 5832 5832 5832 5832 5832 5831 5831 5830 5830 5829 5829 5828 5828 5827 5827 5826
5811 5813 5815 5816 5817 5819 5821 5822 5822 5823 5824 5825 5826 5826 5827 5828 5828 5828 5828 5828 5828 5828 5828 5828 5828 5828 5828 5828 5829 5829 5828 5828 5829 5829 5829 5829 5828 5828 5828 5828 5827 5827 5826 5825 5825 5824 5824 5823 5822
5807 5809 5811 5812 5814 5816 5816 5817 5818 5820 5821 5822 5822 5823 5823 5824 5824 5824 5824 5824 5824 5824 5824 5824 5824 5824 5824 5824 5825 5825 5825 5825 5825 5825 5825 5825 5824 5824 5824 5824 5824 5823 5823 5822 5821 5820 5820 5819 5818
5804 5805 5807 5808 5810 5812 5813 5814 5815 5816 5817 5818 5818 5819 5820 5820 5820 5820 5820 5820 5820 5820 5820 5820 5820 5820 5820 5820 5820 5820 5820 5821 5821 5821 5821 5821 5820 5820 5820 5820 5819 5819 5818 5818 5817 5816 5815 5814 5813
5800 5801 5802 5805 5806 5807 5809 5810 5811 5812 5813 5813 5814 5815 5815 5816 5816 5815 5815 5815 5815 5815 5815 5815 5815 5815 5815 5815 5815 5816 5816 5816 5816 5816 5816 5816 5816 5816 5816 5815 5815 5814 5814 5813 5812 5811 5810 5809 5808
5795 5797 5798 5800 5802 5804 5805 5805 5806 5807 5808 5809 5809 5810 5811 5811 5811 5810 5810 5810 5810 5810 5810 5810 5810 5810 5810 5810 5810 5810 5811 5811 5811 5811 5812 5812 5812 5811 5811 5810 5810 5809 5808 5808 5807 5806 5805 5804 5803
5790 5793 5794 5796 5798 5800 5800 5801 5802 5803 5804 5804 5804 5805 5806 5805 5805 5805 5805 5805 5805 5804 5804 5804 5805 5805 5805 5805 5805 5805 5805 5805 5805 5806 5806 5806 5806 5806 5806 5805 5804 5804 5803 5802 5801 5800 5800 5798 5797
5785 5787 5790 5792 5793 5795 5795 5796 5797 5798 5799 5799 5799 5800 5800 5800 5799 5799 5799 5799 5798 5798 5798 5798 5799 5799 5799 5799 5799 5799 5799 5799 5799 5800 5800 5800 5800 5800 5800 5799 5799 5798 5797 5797 5796 5795 5794 5792 5791
5781 5783 5785 5787 5788 5789 5791 5792 5793 5793 5794 5795 5795 5795 5794 5794 5794 5793 5793 5792 5792 5792 5791 5792 5793 5793 5794 5793 5793 5793 5793 5792 5793 5794 5794 5794 5794 5794 5794 5793 5793 5792 5791 5790 5790 5788 5787 5786 5784
5777 5779 5781 5782 5783 5785 5786 5787 5788 5789 5790 5790 5790 5789 5789 5789 5788 5787 5787 5786 5786 5785 5785 5786 5787 5788 5788 5788 5787 5787 5787 5786 5786 5787 5788 5788 5788 5788 5787 5787 5786 5785 5784 5783 5782 5781 5780 5779 5777
5773 5774 5776 5778 5779 5780 5782 5783 5784 5784 5784 5784 5784 5784 5784 5783 5782 5781 5780 5780 5779 5779 5779 5780 5781 5782 5782 5782 5782 5782 5781 5781 5781 5781 5781 5781 5781 5781 5780 5779 5779 5778 5777 5776 5775 5774 5773 5771 5770
5770 5770 5772 5774 5775 5776 5778 5778 5779 5780 5780 5780 5779 5779 5778 5777 5776 5775 5774 5774 5773 5773 5773 5774 5775 5776 5776 5776 5776 5776 5776 5776 5775 5775 5774 5774 5773 5773 5773 5772 5771 5771 5770 5769 5768 5766 5765 5764 5762
5766 5767 5768 5770 5771 5773 5774 5775 5775 5775 5775 5775 5775 5774 5773 5772 5771 5770 5769 5768 5767 5767 5767 5768 5769 5770 5770 5771 5770 5770 5770 5770 5769 5768 5768 5767 5766 5766 5765 5764 5764 5763 5762 5761 5760 5758 5757 5756 5754
5764 5764 5765 5767 5767 5769 5771 5771 5771 5770 5770 5770 5770 5769 5769 5768 5766 5765 5763 5763 5762 5762 5762 5763 5764 5764 5765 5765 5765 5764 5764 5763 5762 5762 5761 5760 5759 5758 5757 5756 5756 5755 5754 5753 5752 5750 5749 5747 5745
5761 5762 5762 5764 5764 5765 5766 5766 5767 5766 5765 5765 5765 5765 5764 5763 5762 5761 5759 5758 5757 5757 5757 5758 5758 5759 5759 5759 5758 5758 5758 5757 5755 5754 5753 5752 5751 5750 5749 5748 5748 5746 5746 5745 5744 5742 5740 5739 5737
5759 5759 5759 5760 5760 5761 5761 5762 5762 5761 5761 5761 5761 5760 5760 5759 5759 5757 5756 5754 5753 5753 5753 5753 5753 5753 5753 5752 5752 5752 5751 5750 5749 5747 5746 5745 5743 5742 5741 5740 5739 5738 5737 5736 5735 5734 5731 5730 5728
5756 5756 5756 5757 5757 5757 5757 5757 5757 5757 5757 5756 5756 5756 5756 5755 5754 5753 5752 5751 5749 5748 5749 5749 5748 5748 5747 5746 5746 5745 5744 5743 5742 5740 5738 5737 5735 5734 5732 5731 5730 5729 5728 5727 5726 5725 5723 5720 5719
5754 5754 5754 5753 5753 5753 5753 5753 5753 5753 5752 5752 5752 5752 5751 5751 5750 5749 5748 5747 5746 5745 5745 5744 5743 5742 5742 5741 5740 5739 5738 5736 5735 5733 5731 5729 5727 5725 5724 5723 5722 5720 5719 5718 5717 5715 5713 5711 5709
5751 5751 5751 5751 5750 5749 5749 5749 5749 5749 5749 5748 5748 5747 5747 5746 5745 5745 5744 5743 5742 5741 5740 5739 5737 5736 5735 5734 5733 5732 5730 5728 5727 5725 5723 5721 5718 5717 5715 5714 5713 5711 5710 5709 5707 5706 5704 5702 5700
5749 5748 5748 5747 5747 5747 5747 5746 5746 5745 5745 5744 5744 5743 5742 5742 5741 5740 5740 5739 5737 5736 5734 5733 5731 5730 5729 5727 5726 5724 5723 5721 5719 5717 5715 5713 5710 5708 5707 5705 5704 5702 5701 5699 5698 5696 5694 5692 5690
5746 5746 5746 5745 5745 5745 5744 5743 5744 5742 5741 5741 5740 5739 5738 5737 5736 5736 5735 5734 5733 5731 5730 5728 5726 5724 5722 5720 5719 5717 5715 5713 5712 5709 5707 5705 5702 5700 5698 5697 5695 5694 5692 5690 5689 5687 5684 5682 5679
5744 5744 5743 5743 5742 5742 5741 5741 5741 5740 5739 5738 5737 5735 5734 5733 5732 5731 5729 5728 5727 5726 5724 5722 5720 5718 5716 5714 5712 5710 5708 5706 5704 5702 5699 5697 5694 5692 5690 5689 5687 5686 5684 5682 5680 5677 5675 5672 5669
5742 5742 5742 5740 5739 5739 5738 5737 5738 5737 5736 5735 5733 5731 5730 5728 5727 5726 5724 5723 5722 5720 5718 5716 5714 5712 5709 5707 5705 5703 5701 5698 5696 5694 5692 5689 5687 5685 5683 5682 5680 5678 5676 5673 5671 5668 5666 5663 5659
5739 5739 5739 5738 5737 5737 5735 5734 5736 5734 5732 5730 5729 5727 5726 5724 5722 5721 5719 5718 5716 5714 5712 5710 5708 5705 5703 5701 5698 5696 5694 5691 5689 5687 5684 5682 5680 5678 5676 5674 5672 5669 5667 5665 5662 5659 5656 5652 5649
5736 5736 5736 5735 5734 5733 5732 5731 5731 5730 5728 5727 5725 5723 5722 5720 5718 5716 5714 5712 5710 5708 5706 5704 5701 5699 5697 5694 5692 5689 5687 5685 5682 5680 5677 5675 5672 5670 5668 5666 5663 5661 5658 5655 5652 5649 5646 5643 5639
5734 5733 5733 5731 5729 5728 5728 5727 5727 5726 5724 5723 5721 5719 5717 5715 5713 5711 5709 5706 5704 5702 5700 5697 5695 5693 5690 5688 5686 5683 5680 5678 5676 5673 5671 5668 5665 5663 5660 5658 5655 5653 5649 5646 5643 5640 5636 5633 5630
5731 5730 5728 5727 5726 5724 5722 5725 5724 5722 5720 5718 5716 5714 5713 5711 5709 5706 5704 5701 5699 5696 5693 5691 5689 5687 5684 5682 5679 5677 5674 5671 5669 5666 5664 5661 5658 5655 5653 5650 5647 5644 5641 5637 5634 5631 5627 5624 5621
5726 5725 5725 5724 5722 5720 5718 5722 5719 5717 5714 5713 5711 5709 5707 5706 5704 5701 5699 5696 5694 5691 5688 5685 5683 5681 5678 5676 5673 5671 5668 5665 5662 5659 5657 5654 5651 5648 5645 5642 5639 5635 5632 5628 5625 5622 5618 5615 5611